Weather in Nikolayevka

Russia / Kurgan Oblast     55°34′02″N   62°45′33″E
temp.,
°C
wind,
m/s
gust,
m/s
humid.,
%
clouds,
%
prec.,
mm/h
press.,
hPa
HPBL,
m
18 may, tue
tue1823:00+19n61164100 0.4 1017388
02:00+15w3682100 1.4 1016154
05:00+16w41282100 1.8 1015237
08:00+19w61368100 0.1 1015504
11:00+24nw68493 0.1 10141355
14:00+27nnw683562 0.0 10133138
17:00+18nne7127027 0.6 1014409
20:00+18nne912676 0.1 1017878
19 may, wed
wed1923:00+13nne7127522 0.1 1019670
02:00+13nne6866100 0.0 1020851
05:00+12nne5972100 0.0 1022511
08:00+13ne68611 0.0 1023752
11:00+17ne574523 0.0 10241481
14:00+19ne56385 0.0 10231703
17:00+20nne45375 0.0 10231771
20:00+17nne34525 0.0 102355
20 may, thu
thu2023:00+13nne336029 0.0 102427
02:00+11ene2264100 0.0 102512
05:00+10s11685 0.0 102610
08:00+16sw225120 0.0 1026328
11:00+20w223936 0.0 10251480
14:00+22w22325 0.0 10241640
17:00+23w22315 0.0 10231635
20:00+20w12435 0.0 102311
21 may, fri
fri2123:00+16sw33495 0.0 102317
02:00+15wsw33505 0.0 102331
05:00+13wsw33555 0.0 102435
08:00+19wsw34455 0.0 1024256
11:00+24wsw34325 0.0 10241210
14:00+27sw34271 0.0 10231846
17:00+27sw45275 0.0 10222031
20:00+22sw35443 0.0 102265
22 may, sat
sat2223:00+18sw45480 0.0 102370
02:00+16sw45520 0.0 102364
05:00+15sw46540 0.0 102479
08:00+20sw58470 0.0 1024330
11:00+25wsw45380 0.0 1024966
14:00+27w45310 0.0 10232380
17:00+28wsw56275 0.0 10222854
20:00+23sw33444 0.0 102239